This demonstration page uses our WeatherBlox Daily Observations layout. Learn more.

Left ArrowRight Arrow

34.74481, -87.66753

Hourly Observations for June 25, 2022

Temp ( °F °C ) Dew Point ( °F °C ) Humidity (%) Winds ( mph kmh ) Pressure ( in mb ) Visibility ( mi km ) Precip ( " mm )
12:53 am 00:53 Clear 72 22.2 66 18.9 82 82 Calm 29.94 1014 10 16 0.00 0.00
1:53 am 01:53 Clear 70 21.1 66 18.9 87 87 Calm 29.93 1014 10 16 0.00 0.00
2:53 am 02:53 Clear 71 21.7 65 18.3 81 81 Calm 29.93 1014 10 16 0.00 0.00
3:53 am 03:53 Clear 69 20.6 65 18.3 87 87 Calm 29.93 1014 10 16 0.00 0.00
4:53 am 04:53 Clear 68 20 65 18.3 90 90 Calm 29.95 1014 10 16 0.00 0.00
5:53 am 05:53 Sunny 68 20 64 17.8 87 87 Calm 29.97 1015 10 16 0.00 0.00
6:53 am 06:53 Sunny 72 22.2 67 19.4 84 84 Calm 29.99 1016 10 16 0.00 0.00
7:53 am 07:53 Sunny 77 25 68 20 74 74 SE 5 7 30.01 1016 10 16 0.00 0.00
8:53 am 08:53 Sunny 83 28.3 69 20.6 63 63 SSE 7 11 30.02 1017 10 16 0.00 0.00
9:53 am 09:53 Sunny 87 30.6 69 20.6 55 55 S 5 7 30.02 1017 10 16 0.00 0.00
10:53 am 10:53 Sunny 92 33.3 67 19.4 44 44 SSW 8 13 30.02 1017 10 16 0.00 0.00
11:53 am 11:53 Mostly Sunny 96 35.6 61 16.1 31 31 VRB 5 7 30.01 1016 10 16 0.00 0.00
12:53 pm 12:53 Sunny 95 35 62 16.7 34 34 undefined N/A 30.01 1016 10 16 0.00 0.00
1:53 pm 13:53 Partly Cloudy 96 35.6 62 16.7 32 32 undefined N/A 29.98 1015 10 16 0.00 0.00
2:53 pm 14:53 Mostly Cloudy 96 35.6 61 16.1 31 31 VRB 7 11 29.96 1015 10 16 0.00 0.00
3:53 pm 15:53 Mostly Cloudy 97 36.1 63 17.2 33 33 E 3 6 29.96 1014 10 16 0.00 0.00
4:53 pm 16:53 Sunny 97 36.1 62 16.7 32 32 SSE 5 7 29.96 1015 10 16 0.00 0.00
5:53 pm 17:53 Sunny 97 36.1 61 16.1 30 30 ESE 5 7 29.96 1014 10 16 0.00 0.00
6:53 pm 18:53 Sunny 96 35.6 62 16.7 32 32 E 5 7 29.97 1015 10 16 0.00 0.00
7:53 pm 19:53 Sunny 89 31.7 66 18.9 47 47 ESE 3 6 29.98 1015 10 16 0.00 0.00
8:53 pm 20:53 Clear 87 30.6 72 22.2 61 61 SE 9 15 30.00 1016 10 16 0.00 0.00
9:53 pm 21:53 Clear 85 29.4 72 22.2 65 65 SSE 6 9 30.03 1017 10 16 0.00 0.00
10:53 pm 22:53 Clear 82 27.8 72 22.2 72 72 S 6 9 30.04 1017 10 16 0.00 0.00
11:53 pm 23:53 Clear 81 27.2 71 21.7 72 72 S 7 11 30.02 1017 10 16 0.00 0.00

Powered by AerisWeather